Regional Weather Roundup
Issued by NWS

Home | Current Version | Previous Version | Text Only | Print | Product List | Glossary Off
Versions: 1 2 3 4 5 6 7 8 9 10 11 12 13 14 15 16 17 18 19 20 21 22 23 24 25 26 27 28 29 30 31 32 33 34 35 36 37 38 39 40 41 42 43 44 45 46 47 48 49 50

000
ASUS43 KOAX 140302
RWRNE

WEATHER ROUNDUP FOR NEBRASKA
NATIONAL WEATHER SERVICE OMAHA NE
900 PM CST WED DEC 13 2017

NOTES: SATELLITE DATA IS BEING USED TO AUGMENT CLOUD COVER ABOVE
       12000 FEET.
       "FAIR" INDICATES FEW OR NO CLOUDS BELOW 12,000 FEET WITH NO
       SIGNIFICANT WEATHER AND/OR OBSTRUCTIONS TO VISIBILITY.


NEZ001>004-019>022-054>056-140400-
NEBRASKA PANHANDLE

CITY           SKY/WX    TMP DP  RH WIND       PRES   REMARKS
SCOTTSBLUFF    CLOUDY    40  19  43 NW10      30.10R WCI  33
ALLIANCE       CLOUDY    36  23  59 N10       30.06R WCI  28
CHADRON        CLOUDY    31  21  66 CALM      30.09R
GORDON         FAIR      36  25  63 N15       30.05S WCI  27
KIMBALL        CLOUDY    37  15  41 N9        30.08R WCI  31
SIDNEY         CLOUDY    38  17  42 N15       30.07R WCI  29
$$

NEZ057>060-069>072-079>082-140400-
SOUTHWEST NEBRASKA

CITY           SKY/WX    TMP DP  RH WIND       PRES   REMARKS
NORTH PLATTE   CLOUDY    36  23  59 NW8       30.03R WCI  30
IMPERIAL       PTCLDY    36  19  50 N12       30.04R WCI  28
LEXINGTON      PTCLDY    33  23  66 NW8       30.01R WCI  26
MCCOOK         CLOUDY    32  20  61 NW12      30.03R WCI  23
OGALLALA       CLOUDY    39  23  53 NW7       30.05R WCI  34
$$

NEZ005>010-023>029-035>040-094-140400-
NORTH CENTRAL NEBRASKA

CITY           SKY/WX    TMP DP  RH WIND       PRES   REMARKS
VALENTINE      CLOUDY    40  21  46 NW14      30.03R WCI  32
AINSWORTH      PTCLDY    35  24  63 N10       30.01R WCI  28
BROKEN BOW     PTCLDY    39  22  50 NW15      29.98R WCI  31
O`NEILL        CLOUDY    34  28  77 N12       29.99S WCI  25
ORD            PTCLDY    37  26  64 NE12      29.99R WCI  29
THEDFORD       PTCLDY    39  22  51 NW15G22   30.02S WCI  30
$$

NEZ041-046>049-061>064-073>077-083>087-140400-
SOUTH CENTRAL NEBRASKA

CITY           SKY/WX    TMP DP  RH WIND       PRES   REMARKS
GRAND ISLAND   PTCLDY    33  25  72 N7        29.99R WCI  27
AURORA         CLOUDY    34  26  74 N9        29.99R WCI  26
HASTINGS       CLEAR     31  23  72 W8        29.98R WCI  23
HEBRON         CLEAR     35  26  68 NW6       29.97R WCI  30
HOLDREGE       CLOUDY    32  23  69 NW7       29.99S WCI  26
KEARNEY        PTCLDY    36  24  62 NW9       29.99R WCI  29
$$

NEZ011>018-030>034-042>045-140400-
NORTHEAST NEBRASKA

CITY           SKY/WX    TMP DP  RH WIND       PRES   REMARKS
NORFOLK        CLOUDY    37  25  61 N20       29.95R WCI  27
ALBION         PTCLDY    37  27  69 N10       29.98R WCI  29
BLAIR          CLOUDY    39  27  61 N18G28    29.93R WCI  30
COLUMBUS       CLOUDY    36  26  67 N7        29.99R WCI  30
FREMONT        CLOUDY    39  26  58 NW17      29.96S WCI  30
TEKAMAH        CLOUDY    39  25  57 N17       29.95R WCI  30
WAYNE          CLOUDY    37  25  60 N20       29.95S WCI  27
$$

NEZ050>053-065>068-078-088>093-140400-
SOUTHEAST NEBRASKA

CITY           SKY/WX    TMP DP  RH WIND       PRES   REMARKS
LINCOLN        PTCLDY    37  27  67 N8        29.98R WCI  31
OMAHA EPPLEY   CLOUDY    40  25  55 NW22      29.94R WCI  30
BEATRICE       CLEAR     31  25  80 N7        29.96S WCI  24
FALLS CITY     PTCLDY    34  26  72 NW7       29.94R WCI  28
NEBRASKA CITY  CLOUDY    40  28  61 N10G18    29.95R WCI  34
PLATTSMOUTH    CLOUDY    40  27  58 NW13G23   29.94R WCI  33
$$

NEZ044-045-051>053-067-140400-
OMAHA AREA

CITY           SKY/WX    TMP DP  RH WIND       PRES   REMARKS
OMAHA EPPLEY   CLOUDY    40  25  55 NW22      29.94R WCI  30
BLAIR          CLOUDY    39  27  61 N18G28    29.93R WCI  30
FREMONT        CLOUDY    39  26  58 NW17      29.96S WCI  30
MILLARD        CLOUDY    42  27  56 NW13G20   29.95R
OFFUTT AFB     CLOUDY    41  24  52 N17G24    29.94R
PLATTSMOUTH    CLOUDY    40  27  58 NW13G23   29.94R WCI  33
WAHOO          CLOUDY    39  26  58 N15       29.96R WCI  31
$$




USA.gov is the U.S. government's official web portal to all federal, state and local government web resources and services.